[[{"header":{"parameterUnit":"m.s-1","parameterCategory":1,"la1":30.2991,"la2":30.254,"lo1":-89.0895,"lo2":-89.0444,"dy":0.0017,"dx":0.0017,"nx":28,"ny":28,"refTime":"2023-09-20T21:00:00:Z","depth":0,"parameterNumber":2,"parameterNumberName":"U-component_of_WINDS"},"data":[0,0,0,0,0,0,0,0,0,0,0,0,0,0,0,0,0,0,0,0,0,0,0,0,0,0,0,0,0,0,0,0,0,0,0,0,0,0,0,0,0,0,0,0,0,0,0,0,0,0,0,0,0,0,0,0,0,0,-2.8038,-2.8037,0,-2.7852,-2.785,-2.7848,-2.7664,-2.7662,-2.766,-2.7657,-2.7463,-2.746,-2.7457,0,0,0,0,0,0,0,0,0,0,0,0,0,-2.8235,-2.8232,-2.8039,-2.8036,-2.8034,-2.7852,-2.785,-2.7847,-2.7665,-2.7662,-2.7659,-2.7656,-2.7464,-2.7461,-2.7457,0,0,0,0,0,0,0,0,0,0,0,0,0,-2.8109,-2.8231,-2.8039,-2.7921,-2.7909,-2.7853,-2.785,-2.7846,-2.7665,-2.7662,-2.7658,-2.7655,-2.7465,-2.7461,-2.7457,-2.7501,0,0,-2.7443,-2.7441,0,0,0,0,0,0,0,0,-2.8116,-2.8102,-2.7941,-2.7929,-2.7915,-2.7778,-2.7847,-2.7731,-2.7666,-2.7758,-2.7657,-2.7653,-2.7571,-2.7557,-2.753,-2.7492,-2.7483,-2.7443,-2.744,-2.7438,-2.7437,0,0,0,0,0,0,0,-2.8125,-2.8109,-2.7965,-2.7939,-2.7923,-2.7877,-2.7855,-2.7824,-2.7686,-2.775,-2.7736,-2.7716,-2.7563,-2.7535,-2.7524,-2.7481,-2.7443,-2.7439,-2.7436,-2.7434,-2.7471,-2.7474,0,0,0,0,0,0,-2.8152,-2.8117,-2.797,-2.7959,-2.8009,-2.7876,-2.7852,-2.7826,-2.7686,-2.7662,-2.772,-2.7709,-2.7544,-2.7529,-2.7517,-2.756,-2.7438,-2.7434,-2.7431,-2.7467,-2.7471,-2.7475,0,0,0,0,0,0,-2.8157,-2.8141,-2.7978,-2.8034,-2.801,-2.7877,-2.7849,-2.7824,-2.7795,-2.7664,-2.7638,-2.7717,-2.7541,-2.7523,-2.7507,-2.7551,-2.7432,-2.7428,-2.7463,-2.7468,-2.7473,-2.7648,0,0,0,0,0,0,-2.8164,-2.8144,-2.816,-2.8036,-2.8008,-2.7973,-2.7851,-2.7823,-2.7789,-2.7772,-2.7654,-2.7631,-2.7536,-2.7514,-2.7502,-2.7542,-2.7425,-2.7458,-2.7465,-2.7472,-2.7637,-2.7658,-2.7676,0,0,0,0,0,-2.8171,-2.8215,-2.8162,-2.8145,-2.8025,-2.7975,-2.7959,-2.7851,-2.7793,-2.7808,-2.7723,-2.7635,-2.7548,-2.7514,-2.7499,-2.7539,-2.7455,-2.7463,-2.7471,-2.7628,-2.7654,-2.7676,0,0,0,0,0,0,-2.8346,-2.8197,-2.8136,-2.8141,-2.8073,-2.7945,-2.7959,-2.7881,-2.7826,-2.7813,-2.768,-2.7655,-2.7654,-2.7594,-2.7559,-2.7575,-2.7489,-2.7495,-2.7614,-2.7637,-2.7656,-2.7671,-2.7421,0,0,0,0,0,-2.8385,-2.8358,-2.8229,-2.8246,-2.8215,-2.8094,-2.8068,-2.7991,-2.7914,-2.7884,-2.7798,-2.7726,-2.7682,-2.7656,-2.7609,-2.7628,-2.76,-2.7648,-2.7667,-2.7684,-2.769,-2.7697,-2.7717,-2.7502,-2.7502,-2.7502,0,0,-2.8465,-2.8381,-2.8371,-2.8279,-2.8217,-2.8191,-2.8071,-2.8048,-2.8028,-2.7879,-2.786,-2.7795,-2.7706,-2.7708,-2.7705,-2.7658,-2.7744,-2.7694,-2.7709,-2.7705,-2.7708,-2.7728,-2.7746,-2.7508,-2.7507,-2.7506,0,0,-2.8599,-2.8532,-2.854,-2.8481,-2.8389,-2.8308,-2.8311,-2.8195,-2.8147,-2.8125,-2.8014,-2.7987,-2.7915,-2.7856,-2.7817,-2.7932,-2.7849,-2.792,-2.8022,-2.803,-2.8047,-2.8061,-2.8103,-2.812,-2.7927,-2.7927,-2.7927,0,-2.871,-2.8668,-2.8553,-2.8538,-2.8501,-2.8368,-2.8375,-2.8322,-2.822,-2.8197,-2.8146,-2.8054,-2.7985,-2.7972,-2.8001,-2.7973,-2.7972,-2.7933,-2.8054,-2.8067,-2.8079,-2.8117,-2.8133,-2.7937,-2.7935,-2.7934,-2.7934,0,-2.881,-2.8783,-2.8799,-2.8706,-2.867,-2.8666,-2.8551,-2.8529,-2.8455,-2.838,-2.8361,-2.8273,-2.8206,-2.8198,-2.8124,-2.8175,-2.815,-2.8079,-2.799,-2.8111,-2.8145,-2.8158,-2.795,-2.7947,-2.7944,-2.7941,0,0,-2.9046,-2.8891,-2.8899,-2.8855,-2.8745,-2.8721,-2.8712,-2.8648,-2.8632,-2.8566,-2.8555,-2.8498,-2.8433,-2.8389,-2.8308,-2.8316,-2.8414,-2.8243,-2.8239,-2.8279,-2.8465,-2.852,-2.8539,-2.8358,-2.836,-2.8362,-2.8473,0,-2.9161,-2.9137,-2.9034,-2.904,-2.9014,-2.8888,-2.888,-2.8812,-2.8742,-2.8709,-2.8631,-2.8594,-2.8509,-2.8482,-2.8484,-2.8402,-2.8449,-2.8392,-2.8346,-2.8346,-2.8373,-2.8556,-2.8612,-2.8721,-2.8485,-2.8488,-2.8489,0,-2.9291,-2.9236,-2.9241,-2.9133,-2.9118,-2.9112,-2.9047,-2.9017,-2.8937,-2.8886,-2.8839,-2.8749,-2.8732,-2.865,-2.8625,-2.8589,-2.8564,-2.8521,-2.8523,-2.8514,-2.8425,-2.8553,-2.8753,-2.877,-2.8509,-2.8507,-2.8506,0,-2.9464,-2.9391,-2.9384,-2.9351,-2.9224,-2.9224,-2.9171,-2.9088,-2.9057,-2.8999,-2.8978,-2.8919,-2.8887,-2.8844,-2.8741,-2.8691,-2.8728,-2.8637,-2.8685,-2.8688,-2.8698,-2.8699,-2.8898,-2.8683,-2.8683,-2.8682,-2.8682,0,-2.9603,-2.9611,-2.946,-2.9456,-2.9462,-2.9344,-2.9352,-2.9287,-2.9215,-2.9196,-2.9083,-2.9067,-2.8933,-2.8902,-2.8822,-2.8814,-2.88,-2.8758,-2.8737,-2.8769,-2.8774,-2.875,-2.874,-2.8686,-2.8686,-2.8685,-2.8684,0,-2.9797,-2.9696,-2.9681,-2.9564,-2.9535,-2.9544,-2.9443,-2.9435,-2.9359,-2.9337,-2.9325,-2.9206,-2.9164,-2.9058,-2.8988,-2.8934,-2.8948,-2.8908,-2.8976,-2.8962,-2.9017,-2.9014,-2.9208,-2.9228,-2.9001,-2.9003,-2.9005,0,-2.9892,-2.9895,-2.978,-2.976,-2.9713,-2.9681,-2.965,-2.9534,-2.9506,-2.9417,-2.942,-2.9369,-2.9323,-2.9262,-2.9169,-2.9116,-2.9074,-2.9146,-2.9065,-2.9098,-2.9076,-2.9077,-2.9078,-2.9164,-2.9167,-2.9169,-2.9171,0,-3.0072,-3.0023,-2.9982,-2.9926,-2.9892,-2.9841,-2.9783,-2.9773,-2.9643,-2.9618,-2.9575,-2.9539,-2.9469,-2.9421,-2.9353,-2.9298,-2.9214,-2.9198,-2.9206,-2.9239,-2.9278,-2.9258,-2.9025,-2.9194,-2.9191,-2.919,-2.9189,-2.9188,-3.0219,-3.0217,-3.0136,-3.0095,-3.0041,-2.999,-2.9977,-2.9901,-2.9864,-2.9798,-2.9732,-2.9697,-2.9618,-2.9519,-2.9471,-2.9441,-2.9397,-2.9409,-2.9412,-2.9417,-2.9432,-2.9284,-2.9428,-2.9427,-2.9427,-2.9426,-2.9425,0,-3.0394,-3.0336,-3.03,-3.0225,-3.0193,-3.0118,-3.0051,-3.003,-3.0,-2.9935,-2.9892,-2.9844,-2.9797,-2.9702,-2.9647,-2.9642,-2.9602,-2.9631,-2.9631,-2.962,-2.9474,-2.9473,-2.9665,-2.9665,-2.9665,-2.9665,-2.9665,-2.9665,-3.0481,-3.0474,-3.0416,-3.0381,-3.0322,-3.0288,-3.0256,-3.021,-3.0157,-3.0109,-3.007,-3.0009,-2.9931,-2.987,-2.9825,-2.9798,-2.9783,-2.9826,-2.9787,-2.9652,-2.963,-2.9608,-2.9606,-2.9823,-2.9824,-2.9935,-2.9936,-2.9936]},{"header":{"parameterUnit":"m.s-1","parameterCategory":1,"la1":30.2991,"la2":30.254,"lo1":-89.0895,"lo2":-89.0444,"dy":0.0017,"dx":0.0017,"nx":28,"ny":28,"refTime":"2023-09-20T21:00:00:Z","depth":0,"parameterNumber":3,"parameterNumberName":"V-component_of_WINDS"},"data":[0,0,0,0,0,0,0,0,0,0,0,0,0,0,0,0,0,0,0,0,0,0,0,0,0,0,0,0,0,0,0,0,0,0,0,0,0,0,0,0,0,0,0,0,0,0,0,0,0,0,0,0,0,0,0,0,0,0,-1.1973,-1.1972,0,-1.1905,-1.1905,-1.1904,-1.1802,-1.18,-1.1798,-1.1797,-1.1727,-1.1727,-1.1726,0,0,0,0,0,0,0,0,0,0,0,0,0,-1.2011,-1.2011,-1.1973,-1.1972,-1.1971,-1.1905,-1.1905,-1.1904,-1.1802,-1.18,-1.1798,-1.1796,-1.1727,-1.1727,-1.1726,0,0,0,0,0,0,0,0,0,0,0,0,0,-1.1974,-1.2011,-1.1973,-1.1913,-1.1907,-1.1906,-1.1904,-1.1903,-1.1803,-1.18,-1.1797,-1.1795,-1.1727,-1.1727,-1.1726,-1.1779,0,0,-1.1726,-1.1725,0,0,0,0,0,0,0,0,-1.1977,-1.1973,-1.1923,-1.1917,-1.191,-1.1859,-1.1892,-1.1862,-1.1803,-1.1842,-1.1797,-1.1793,-1.1773,-1.1769,-1.1762,-1.1775,-1.1772,-1.1726,-1.1725,-1.1725,-1.1725,0,0,0,0,0,0,0,-1.1979,-1.1975,-1.1946,-1.1922,-1.1914,-1.1888,-1.188,-1.1886,-1.1824,-1.1839,-1.1831,-1.1824,-1.1769,-1.1763,-1.176,-1.1771,-1.1726,-1.1725,-1.1725,-1.1725,-1.1819,-1.1821,0,0,0,0,0,0,-1.1991,-1.1978,-1.1948,-1.1944,-1.1937,-1.189,-1.188,-1.1878,-1.1823,-1.1812,-1.1827,-1.182,-1.1764,-1.176,-1.1757,-1.181,-1.1725,-1.1725,-1.1725,-1.1816,-1.182,-1.1822,0,0,0,0,0,0,-1.1992,-1.1989,-1.1951,-1.1959,-1.1952,-1.1892,-1.189,-1.1878,-1.1872,-1.1814,-1.1802,-1.1832,-1.1762,-1.1757,-1.1773,-1.1807,-1.1725,-1.1725,-1.1813,-1.1817,-1.1821,-1.1921,0,0,0,0,0,0,-1.1994,-1.199,-1.2011,-1.196,-1.1952,-1.197,-1.1893,-1.1879,-1.1872,-1.1862,-1.1816,-1.1806,-1.176,-1.1774,-1.1773,-1.1805,-1.1724,-1.181,-1.1815,-1.182,-1.1915,-1.1928,-1.194,0,0,0,0,0,-1.1996,-1.2043,-1.2012,-1.2009,-1.1976,-1.1972,-1.1967,-1.1913,-1.1875,-1.1893,-1.1856,-1.1807,-1.1804,-1.1776,-1.1774,-1.1807,-1.1807,-1.1814,-1.1819,-1.1909,-1.1926,-1.194,0,0,0,0,0,0,-1.2099,-1.2035,-1.2001,-1.2033,-1.2009,-1.1955,-1.1977,-1.1933,-1.1919,-1.1911,-1.1845,-1.1835,-1.1858,-1.1834,-1.1805,-1.1852,-1.1798,-1.1804,-1.1867,-1.1882,-1.1894,-1.1898,-1.1724,0,0,0,0,0,-1.2126,-1.2128,-1.2072,-1.2106,-1.2095,-1.2039,-1.2035,-1.1995,-1.1967,-1.1956,-1.192,-1.1894,-1.1886,-1.1883,-1.1874,-1.1911,-1.1897,-1.1932,-1.1945,-1.1955,-1.1961,-1.1974,-1.1988,-1.1842,-1.1842,-1.1842,0,0,-1.2181,-1.2146,-1.2152,-1.2125,-1.2102,-1.2104,-1.203,-1.2037,-1.2037,-1.1957,-1.1968,-1.1941,-1.1908,-1.1933,-1.1943,-1.1914,-1.1998,-1.1963,-1.1972,-1.1971,-1.1982,-1.1995,-1.2008,-1.1846,-1.1845,-1.1845,0,0,-1.2281,-1.2257,-1.228,-1.2257,-1.2222,-1.2184,-1.2189,-1.2141,-1.212,-1.213,-1.2069,-1.2068,-1.2058,-1.2035,-1.2022,-1.2111,-1.2064,-1.211,-1.2175,-1.2189,-1.22,-1.221,-1.2238,-1.2249,-1.2116,-1.2116,-1.2116,0,-1.2353,-1.2355,-1.2298,-1.2307,-1.2295,-1.2222,-1.2244,-1.2225,-1.2189,-1.2182,-1.215,-1.2133,-1.2106,-1.2123,-1.2144,-1.2138,-1.2139,-1.2114,-1.2204,-1.2213,-1.2221,-1.2247,-1.2258,-1.2121,-1.2121,-1.212,-1.212,0,-1.2444,-1.2446,-1.2469,-1.2434,-1.2426,-1.2442,-1.2385,-1.2383,-1.2344,-1.2308,-1.2318,-1.2282,-1.2262,-1.2263,-1.2226,-1.2274,-1.2257,-1.2216,-1.2159,-1.2241,-1.2264,-1.2274,-1.2129,-1.2127,-1.2126,-1.2124,0,0,-1.2608,-1.2539,-1.2548,-1.253,-1.2485,-1.2484,-1.2496,-1.2476,-1.2474,-1.2451,-1.2456,-1.2448,-1.2408,-1.2394,-1.2353,-1.2366,-1.2433,-1.2322,-1.232,-1.2341,-1.2479,-1.2508,-1.2521,-1.2402,-1.2404,-1.2405,-1.248,0,-1.2697,-1.2712,-1.2659,-1.2687,-1.2686,-1.2615,-1.2624,-1.2596,-1.2563,-1.2556,-1.2519,-1.2512,-1.2463,-1.2453,-1.2462,-1.2423,-1.2459,-1.2417,-1.2404,-1.2404,-1.2412,-1.2533,-1.2565,-1.2638,-1.2489,-1.2491,-1.2492,0,-1.2802,-1.2783,-1.2811,-1.2761,-1.2758,-1.2768,-1.2743,-1.2738,-1.2704,-1.2679,-1.2661,-1.2613,-1.2618,-1.2566,-1.257,-1.2542,-1.2533,-1.2513,-1.2514,-1.2509,-1.2451,-1.2528,-1.266,-1.267,-1.2506,-1.2505,-1.2504,0,-1.2914,-1.2896,-1.2909,-1.2896,-1.2839,-1.2846,-1.2823,-1.2786,-1.2776,-1.2755,-1.2747,-1.2727,-1.2715,-1.2699,-1.2645,-1.2613,-1.2654,-1.2599,-1.2631,-1.2632,-1.2641,-1.2641,-1.2771,-1.2641,-1.2641,-1.2641,-1.264,0,-1.3017,-1.3036,-1.2958,-1.2966,-1.2984,-1.2922,-1.2941,-1.2911,-1.2878,-1.2877,-1.2816,-1.2816,-1.2747,-1.2739,-1.2697,-1.2704,-1.27,-1.2678,-1.2666,-1.2681,-1.2684,-1.2673,-1.2665,-1.2643,-1.2643,-1.2642,-1.2642,0,-1.3144,-1.3093,-1.3102,-1.3047,-1.3033,-1.3048,-1.3,-1.3004,-1.2966,-1.2965,-1.2961,-1.2902,-1.2888,-1.2834,-1.2809,-1.278,-1.28,-1.2779,-1.2811,-1.2803,-1.2837,-1.2833,-1.2962,-1.2974,-1.284,-1.2842,-1.2843,0,-1.3212,-1.3224,-1.3169,-1.3164,-1.3143,-1.3136,-1.3125,-1.3065,-1.3055,-1.3016,-1.3024,-1.3005,-1.2987,-1.2969,-1.2922,-1.2901,-1.2877,-1.2924,-1.2874,-1.2888,-1.2873,-1.2872,-1.2871,-1.2934,-1.2936,-1.2937,-1.2938,0,-1.3335,-1.3309,-1.3296,-1.3273,-1.3261,-1.3241,-1.3216,-1.3215,-1.3147,-1.314,-1.3125,-1.3111,-1.3084,-1.3065,-1.3036,-1.301,-1.2962,-1.2955,-1.296,-1.2975,-1.2992,-1.2979,-1.2837,-1.2952,-1.295,-1.2949,-1.2949,-1.2948,-1.3432,-1.3438,-1.34,-1.3386,-1.3361,-1.3339,-1.3339,-1.33,-1.3287,-1.326,-1.3225,-1.3214,-1.3176,-1.3132,-1.3109,-1.3098,-1.3072,-1.3081,-1.3083,-1.3085,-1.3091,-1.2996,-1.3093,-1.3092,-1.3092,-1.3092,-1.3091,0,-1.3549,-1.352,-1.3509,-1.3475,-1.3464,-1.3421,-1.3391,-1.3384,-1.3375,-1.3344,-1.3327,-1.3309,-1.329,-1.3241,-1.3217,-1.3217,-1.3194,-1.3212,-1.321,-1.3204,-1.3118,-1.3114,-1.3231,-1.3231,-1.3231,-1.3231,-1.3231,-1.3231,-1.3608,-1.3615,-1.3584,-1.3577,-1.3548,-1.3537,-1.3523,-1.3501,-1.3476,-1.3458,-1.3442,-1.341,-1.3371,-1.3343,-1.3322,-1.3308,-1.3301,-1.3326,-1.3304,-1.3224,-1.3211,-1.3198,-1.3193,-1.3325,-1.3325,-1.339,-1.3391,-1.3391]}]]